sat.trackr.live / text

‹ back to catalog

IRIDIUM 135

NORAD 43070 · 2017-083A

PAYLOAD ACTIVE UNKNOWN

§ Identity

Operator
Country
US
Launch date
2017-12-23
Launch site
AFWTR
Launch vehicle
Mass (kg)
RCS (m²)

Purposes: comms

External: N2YO · Heavens-Above · Gunter

§ Orbital elements

Epoch: 2026-05-25T01:23:47.209056Z

Period
100.40 min
Inclination
86.3950°
Eccentricity
0.0002048
Mean motion
14.34217266 rev/d
Perigee alt
776.2 km
Apogee alt
779.1 km
Semi-major
7,155.8 km
B*
-1.4911e-5
RAAN
331.6892°
Arg perigee
89.1165°
Mean anomaly
271.0266°
Rev number
44,083

§ Raw data

IRIDIUM 1351 43070U 17083A   26145.05818529 -.00000022  00000+0 -14911-4 0  99942 43070  86.3950 331.6892 0002048  89.1165 271.0266 14.34217266440832

JSON: /api/v1/satellites/43070 · /tle

For live sub-satellite position, see the globe view (requires WebGL).

§ Visibility from observer

Set your observer location to see the next 7 days of passes ≥ 10°. The values pass through the URL so the page stays shareable.

No JS? Fill the form by hand. The geolocation button needs JavaScript.